User: anonymous   Login
Location: Unspecified
(0.0000°N, 0.0000°E)
Time: 21:52:10
(UTC+00:00)
Language:

Transit 4B - Orbit

View from above orbital plane
View from above orbital plane
View from above satellite
View from above satellite

Ground track
Ground track

The orbit data is extracted from the following two-line orbital elements,

1   202U 61031A   17082.92262153 +.00000059 +00000-0 +43919-4 0  9997
2   202 032.4390 327.9522 0101306 166.8135 193.5165 13.63500260760434
Epoch (UTC): 23 March 2017 22:08:34
Eccentricity: 0.0101306
inclination: 32.4390°
perigee height: 948 km
apogee height: 1098 km
right ascension of ascending node: 327.9522°
argument of perigee: 166.8135°
revolutions per day: 13.63500260
mean anomaly at epoch: 193.5165°
orbit number at epoch: 76043

The dashed part of the orbit path shows where the satellite is in the earth's shadow,  

DLR